[[{"header":{"parameterUnit":"m.s-1","parameterCategory":1,"la1":30.2991,"la2":30.254,"lo1":-89.0895,"lo2":-89.0444,"dy":0.0017,"dx":0.0017,"nx":28,"ny":28,"refTime":"2025-01-12T09:00:00:Z","depth":0,"parameterNumber":2,"parameterNumberName":"U-component_of_WINDS"},"data":[0,0,0,0,0,0,0,0,0,0,0,0,0,0,0,0,0,0,0,0,0,0,0,0,0,0,0,0,0,0,0,0,0,0,0,0,0,0,0,0,0,0,0,0,0,0,0,0,0,0,0,0,0,0,0,0,0,0,-4.6865,-4.6866,0,-4.6916,-4.6917,-4.6917,-4.6848,-4.6846,-4.6843,-4.6841,-4.6891,-4.6894,-4.6898,0,0,0,0,0,0,0,0,0,0,0,0,0,-4.6706,-4.6709,-4.6865,-4.6866,-4.6866,-4.6916,-4.6917,-4.6917,-4.6849,-4.6846,-4.6843,-4.684,-4.689,-4.6894,-4.6898,0,0,0,0,0,0,0,0,0,0,0,0,0,-4.6768,-4.671,-4.6865,-4.6838,-4.6836,-4.6916,-4.6917,-4.6918,-4.6849,-4.6845,-4.6842,-4.6838,-4.6888,-4.6894,-4.6899,-4.7007,0,0,-4.6916,-4.6918,0,0,0,0,0,0,0,0,-4.6764,-4.6774,-4.6841,-4.684,-4.6838,-4.6872,-4.6879,-4.6948,-4.685,-4.6844,-4.6841,-4.6836,-4.6888,-4.6893,-4.691,-4.7009,-4.7012,-4.6916,-4.692,-4.6922,-4.6923,0,0,0,0,0,0,0,-4.676,-4.6771,-4.6885,-4.6842,-4.684,-4.6823,-4.6827,-4.6892,-4.6886,-4.6844,-4.684,-4.6847,-4.6886,-4.6905,-4.6911,-4.7012,-4.6916,-4.6921,-4.6924,-4.6926,-4.7203,-4.7207,0,0,0,0,0,0,-4.6759,-4.6768,-4.6884,-4.6887,-4.6791,-4.6829,-4.6834,-4.6865,-4.6885,-4.6885,-4.685,-4.6843,-4.6898,-4.6905,-4.6913,-4.7041,-4.6922,-4.6927,-4.693,-4.7199,-4.7204,-4.7208,0,0,0,0,0,0,-4.6756,-4.677,-4.6882,-4.6826,-4.6839,-4.6835,-4.6871,-4.6868,-4.6887,-4.6889,-4.6888,-4.6871,-4.6895,-4.6905,-4.6984,-4.7042,-4.6929,-4.6934,-4.7194,-4.72,-4.7206,-4.7298,0,0,0,0,0,0,-4.6752,-4.677,-4.6811,-4.6828,-4.6842,-4.6953,-4.6874,-4.6871,-4.6897,-4.6889,-4.6909,-4.6908,-4.6893,-4.6977,-4.699,-4.7047,-4.6939,-4.7189,-4.7197,-4.7204,-4.729,-4.7307,-4.7321,0,0,0,0,0,-4.6746,-4.6834,-4.6814,-4.6828,-4.6894,-4.6957,-4.6965,-4.6946,-4.6902,-4.6943,-4.6945,-4.6908,-4.7033,-4.6985,-4.7,-4.7059,-4.7185,-4.7195,-4.7203,-4.7283,-4.7303,-4.7321,0,0,0,0,0,0,-4.6824,-4.6836,-4.6813,-4.6909,-4.6933,-4.6945,-4.6997,-4.6968,-4.7004,-4.6995,-4.697,-4.6975,-4.706,-4.7067,-4.7014,-4.7165,-4.7102,-4.7114,-4.7157,-4.7177,-4.7192,-4.7188,-4.6943,0,0,0,0,0,-4.6852,-4.6903,-4.691,-4.6994,-4.7008,-4.7,-4.7027,-4.7011,-4.7034,-4.7043,-4.705,-4.7073,-4.7117,-4.7147,-4.7188,-4.7291,-4.7294,-4.7339,-4.7354,-4.7367,-4.7378,-4.7433,-4.7453,-4.7238,-4.7238,-4.7238,0,0,-4.6911,-4.6924,-4.6957,-4.701,-4.7027,-4.7079,-4.7009,-4.7067,-4.7106,-4.7051,-4.7127,-4.7133,-4.7157,-4.7249,-4.7289,-4.7258,-4.7438,-4.7379,-4.7389,-4.7393,-4.7444,-4.7465,-4.7483,-4.7244,-4.7243,-4.7242,0,0,-4.7045,-4.706,-4.7132,-4.715,-4.7176,-4.7171,-4.7188,-4.7205,-4.7207,-4.7283,-4.7244,-4.7289,-4.7366,-4.7385,-4.7405,-4.7547,-4.7514,-4.7561,-4.7642,-4.7696,-4.7713,-4.7728,-4.7779,-4.7797,-4.7572,-4.7572,-4.7572,0,-4.7115,-4.7193,-4.7172,-4.7234,-4.7259,-4.7213,-4.7285,-4.7303,-4.7341,-4.7359,-4.7323,-4.7419,-4.7432,-4.7528,-4.7563,-4.758,-4.7599,-4.7559,-4.7712,-4.7727,-4.774,-4.7789,-4.7808,-4.7578,-4.7577,-4.7577,-4.7576,0,-4.7278,-4.7333,-4.7388,-4.7427,-4.7457,-4.7524,-4.7513,-4.7546,-4.7527,-4.7526,-4.7603,-4.7617,-4.7661,-4.7682,-4.7664,-4.7775,-4.7755,-4.7716,-4.7652,-4.7767,-4.7812,-4.783,-4.7586,-4.7584,-4.7582,-4.7581,0,0,-4.7462,-4.7489,-4.751,-4.7527,-4.7553,-4.7594,-4.7659,-4.7702,-4.7731,-4.7759,-4.7812,-4.7879,-4.7843,-4.7866,-4.7849,-4.7897,-4.8009,-4.7852,-4.7852,-4.7881,-4.8133,-4.8162,-4.8184,-4.7987,-4.7991,-4.7994,-4.8131,0,-4.7597,-4.771,-4.7693,-4.7801,-4.7852,-4.7809,-4.7865,-4.7887,-4.7887,-4.7929,-4.7929,-4.7977,-4.7926,-4.794,-4.7984,-4.7986,-4.8059,-4.7976,-4.8036,-4.8039,-4.8032,-4.8207,-4.8238,-4.8367,-4.8148,-4.8151,-4.8153,0,-4.7769,-4.7804,-4.7918,-4.7936,-4.7957,-4.8008,-4.8046,-4.8087,-4.811,-4.8107,-4.8133,-4.8108,-4.8172,-4.8107,-4.8195,-4.8138,-4.8162,-4.8167,-4.8171,-4.8176,-4.8103,-4.8217,-4.8408,-4.8428,-4.8181,-4.8179,-4.8177,0,-4.7893,-4.7968,-4.8046,-4.8062,-4.8085,-4.8122,-4.8133,-4.8153,-4.818,-4.8213,-4.8231,-4.8271,-4.8293,-4.8325,-4.8311,-4.8265,-4.8402,-4.8335,-4.84,-4.8401,-4.8431,-4.8429,-4.8629,-4.8447,-4.8446,-4.8446,-4.8446,0,-4.8045,-4.8116,-4.8102,-4.815,-4.8229,-4.8209,-4.8287,-4.8292,-4.831,-4.8358,-4.8323,-4.8369,-4.8348,-4.8392,-4.8382,-4.8456,-4.8466,-4.8465,-4.8462,-4.8469,-4.8469,-4.8484,-4.8474,-4.8451,-4.845,-4.8449,-4.8448,0,-4.8196,-4.819,-4.8272,-4.8287,-4.8293,-4.835,-4.8363,-4.8407,-4.8405,-4.8466,-4.8479,-4.8476,-4.8526,-4.8515,-4.857,-4.8563,-4.8657,-4.8642,-4.8649,-4.8646,-4.8712,-4.8706,-4.8928,-4.8956,-4.8756,-4.8758,-4.8759,0,-4.8294,-4.8348,-4.837,-4.84,-4.8414,-4.8463,-4.849,-4.8473,-4.8503,-4.8534,-4.8575,-4.8622,-4.8659,-4.8741,-4.8743,-4.8784,-4.877,-4.8845,-4.8776,-4.8782,-4.8771,-4.8768,-4.8774,-4.8859,-4.8861,-4.8863,-4.8864,0,-4.8468,-4.8462,-4.8505,-4.8546,-4.8581,-4.8612,-4.864,-4.8666,-4.8651,-4.8687,-4.8738,-4.8767,-4.8823,-4.887,-4.8909,-4.8919,-4.889,-4.8886,-4.8904,-4.8911,-4.8913,-4.8913,-4.8687,-4.8881,-4.8879,-4.8878,-4.8877,-4.8877,-4.8596,-4.8642,-4.8665,-4.8713,-4.8732,-4.8759,-4.8802,-4.8806,-4.8848,-4.8893,-4.888,-4.8939,-4.896,-4.9009,-4.9025,-4.907,-4.9041,-4.9067,-4.9073,-4.9079,-4.9088,-4.8906,-4.9077,-4.9076,-4.9076,-4.9075,-4.9075,0,-4.8768,-4.8781,-4.8825,-4.8866,-4.8904,-4.8873,-4.8903,-4.8936,-4.8988,-4.9012,-4.9049,-4.9108,-4.9154,-4.9159,-4.9202,-4.9237,-4.9225,-4.9249,-4.9246,-4.9249,-4.911,-4.9091,-4.9259,-4.9259,-4.9259,-4.9259,-4.9259,-4.9259,-4.8862,-4.8939,-4.8936,-4.9022,-4.9034,-4.9091,-4.9111,-4.9135,-4.9154,-4.9222,-4.926,-4.9264,-4.928,-4.9324,-4.9364,-4.9365,-4.9382,-4.9412,-4.9407,-4.9277,-4.9259,-4.9242,-4.9223,-4.9416,-4.9416,-4.9542,-4.9544,-4.9544]},{"header":{"parameterUnit":"m.s-1","parameterCategory":1,"la1":30.2991,"la2":30.254,"lo1":-89.0895,"lo2":-89.0444,"dy":0.0017,"dx":0.0017,"nx":28,"ny":28,"refTime":"2025-01-12T09:00:00:Z","depth":0,"parameterNumber":3,"parameterNumberName":"V-component_of_WINDS"},"data":[0,0,0,0,0,0,0,0,0,0,0,0,0,0,0,0,0,0,0,0,0,0,0,0,0,0,0,0,0,0,0,0,0,0,0,0,0,0,0,0,0,0,0,0,0,0,0,0,0,0,0,0,0,0,0,0,0,0,-5.8937,-5.8935,0,-5.8774,-5.8772,-5.877,-5.864,-5.8639,-5.8638,-5.8637,-5.8465,-5.8462,-5.8458,0,0,0,0,0,0,0,0,0,0,0,0,0,-5.9127,-5.9124,-5.8937,-5.8935,-5.8933,-5.8774,-5.8772,-5.8769,-5.8641,-5.8639,-5.8637,-5.8636,-5.8466,-5.8462,-5.8458,0,0,0,0,0,0,0,0,0,0,0,0,0,-5.9012,-5.9123,-5.8937,-5.8849,-5.884,-5.8774,-5.8772,-5.8769,-5.8641,-5.8639,-5.8637,-5.8635,-5.8468,-5.8463,-5.8458,-5.8465,0,0,-5.8442,-5.844,0,0,0,0,0,0,0,0,-5.9019,-5.9005,-5.8864,-5.8855,-5.8845,-5.8725,-5.8776,-5.8667,-5.8641,-5.8716,-5.8637,-5.8634,-5.8553,-5.8541,-5.8514,-5.8457,-5.8449,-5.8442,-5.8439,-5.8436,-5.8435,0,0,0,0,0,0,0,-5.9027,-5.9011,-5.8872,-5.8862,-5.885,-5.8815,-5.8796,-5.8754,-5.8647,-5.871,-5.87,-5.8683,-5.8547,-5.852,-5.8509,-5.8447,-5.8442,-5.8437,-5.8434,-5.8432,-5.8377,-5.8378,0,0,0,0,0,0,-5.9049,-5.9019,-5.8877,-5.8867,-5.8929,-5.8813,-5.8792,-5.8766,-5.8647,-5.8628,-5.8684,-5.8677,-5.8529,-5.8515,-5.8503,-5.8497,-5.8437,-5.8432,-5.8429,-5.8375,-5.8377,-5.8379,0,0,0,0,0,0,-5.9054,-5.9038,-5.8884,-5.894,-5.8918,-5.8812,-5.8783,-5.8763,-5.8736,-5.8628,-5.8608,-5.8676,-5.8527,-5.851,-5.8473,-5.849,-5.8429,-5.8425,-5.8373,-5.8376,-5.8378,-5.8491,0,0,0,0,0,0,-5.906,-5.904,-5.9045,-5.8941,-5.8915,-5.8861,-5.8784,-5.8762,-5.8728,-5.8717,-5.8615,-5.8597,-5.8524,-5.8482,-5.8468,-5.8482,-5.8421,-5.8371,-5.8374,-5.8377,-5.8485,-5.8497,-5.8506,0,0,0,0,0,-5.9067,-5.9084,-5.9046,-5.903,-5.8919,-5.8862,-5.8847,-5.8765,-5.873,-5.8731,-5.866,-5.86,-5.849,-5.8479,-5.8463,-5.8475,-5.837,-5.8373,-5.8377,-5.848,-5.8494,-5.8506,0,0,0,0,0,0,-5.9192,-5.9069,-5.9026,-5.901,-5.8947,-5.8841,-5.884,-5.8783,-5.8729,-5.872,-5.8618,-5.8596,-5.8569,-5.8518,-5.8508,-5.8471,-5.8421,-5.8422,-5.8506,-5.8518,-5.8529,-5.8541,-5.8417,0,0,0,0,0,-5.9218,-5.9185,-5.9078,-5.9074,-5.9045,-5.8948,-5.892,-5.8862,-5.8792,-5.8765,-5.8692,-5.8625,-5.8574,-5.8543,-5.8492,-5.8476,-5.8449,-5.8476,-5.8487,-5.8496,-5.8497,-5.8477,-5.8486,-5.839,-5.839,-5.839,0,0,-5.9271,-5.92,-5.9185,-5.9097,-5.9042,-5.9005,-5.8927,-5.8894,-5.8864,-5.8759,-5.8719,-5.8663,-5.8581,-5.8553,-5.8537,-5.851,-5.8517,-5.8501,-5.8509,-5.8505,-5.8482,-5.8491,-5.8499,-5.8393,-5.8392,-5.8392,0,0,-5.9349,-5.9294,-5.9281,-5.9226,-5.9143,-5.9078,-5.9075,-5.8975,-5.8933,-5.8892,-5.881,-5.8771,-5.8689,-5.8631,-5.8591,-5.8638,-5.8578,-5.8624,-5.868,-5.8662,-5.8669,-5.8675,-5.8687,-5.8693,-5.8626,-5.8626,-5.8626,0,-5.9425,-5.937,-5.9282,-5.9251,-5.9212,-5.9115,-5.9098,-5.9049,-5.8953,-5.8926,-5.8897,-5.8785,-5.8724,-5.8677,-5.8688,-5.8661,-5.8649,-5.8635,-5.8676,-5.8681,-5.8685,-5.8695,-5.87,-5.8632,-5.8631,-5.863,-5.863,0,-5.9464,-5.9426,-5.9426,-5.9334,-5.9295,-5.9273,-5.9177,-5.9147,-5.909,-5.9026,-5.898,-5.8901,-5.8828,-5.8813,-5.8758,-5.8757,-5.8741,-5.8696,-5.8643,-5.8702,-5.8708,-5.8712,-5.864,-5.8638,-5.8636,-5.8635,0,0,-5.9618,-5.9475,-5.9476,-5.943,-5.9329,-5.9296,-5.9265,-5.9194,-5.9168,-5.9103,-5.9071,-5.8999,-5.8953,-5.8908,-5.8844,-5.8829,-5.8863,-5.8783,-5.8779,-5.8797,-5.8849,-5.8882,-5.8888,-5.8822,-5.8823,-5.8823,-5.8854,0,-5.9676,-5.9619,-5.9536,-5.9504,-5.9464,-5.9368,-5.934,-5.9272,-5.921,-5.9163,-5.9093,-5.9042,-5.8989,-5.8959,-5.894,-5.8864,-5.8872,-5.886,-5.8786,-5.8785,-5.8808,-5.8893,-5.893,-5.8963,-5.8857,-5.8857,-5.8857,0,-5.9737,-5.9677,-5.9642,-5.9536,-5.9516,-5.9494,-5.9418,-5.9377,-5.9294,-5.9249,-5.9195,-5.9125,-5.9081,-5.9036,-5.897,-5.8964,-5.8928,-5.8885,-5.8884,-5.8873,-5.8824,-5.888,-5.8972,-5.8976,-5.8862,-5.8862,-5.8861,0,-5.9847,-5.9757,-5.9722,-5.9687,-5.9566,-5.955,-5.9498,-5.9414,-5.9374,-5.9307,-5.9278,-5.9207,-5.9167,-5.911,-5.9019,-5.8996,-5.8961,-5.891,-5.8918,-5.892,-5.8915,-5.8916,-5.9,-5.8897,-5.8897,-5.8897,-5.8897,0,-5.9919,-5.99,-5.977,-5.9748,-5.9721,-5.9624,-5.9598,-5.9537,-5.9462,-5.9422,-5.9334,-5.9298,-5.9183,-5.9131,-5.9059,-5.9012,-5.8996,-5.8954,-5.8935,-5.8961,-5.8965,-5.8935,-5.8929,-5.8898,-5.8898,-5.8897,-5.8897,0,-6.0038,-5.9951,-5.9906,-5.9793,-5.9764,-5.9748,-5.9649,-5.9621,-5.9552,-5.9503,-5.9485,-5.9375,-5.9309,-5.9214,-5.9119,-5.907,-5.9032,-5.9003,-5.9061,-5.9049,-5.9061,-5.906,-5.9125,-5.9126,-5.9027,-5.9028,-5.9029,0,-6.0089,-6.0072,-5.9956,-5.9924,-5.9875,-5.9826,-5.9784,-5.9685,-5.9644,-5.9545,-5.9527,-5.9455,-5.9392,-5.9289,-5.9198,-5.9122,-5.9089,-5.9116,-5.9077,-5.9101,-5.9083,-5.9084,-5.9079,-5.9126,-5.9128,-5.9129,-5.913,0,-6.0186,-6.0142,-6.0088,-6.0016,-5.9968,-5.9906,-5.984,-5.9818,-5.9702,-5.966,-5.9592,-5.9543,-5.9444,-5.937,-5.9282,-5.9222,-5.9154,-5.9143,-5.914,-5.9165,-5.9197,-5.9175,-5.9083,-5.9142,-5.9141,-5.914,-5.9139,-5.9139,-6.0269,-6.0247,-6.0161,-6.01,-6.004,-5.9978,-5.9945,-5.987,-5.9813,-5.9726,-5.967,-5.9603,-5.9512,-5.9386,-5.9329,-5.9271,-5.9244,-5.9241,-5.924,-5.924,-5.9247,-5.9208,-5.9255,-5.9254,-5.9254,-5.9254,-5.9253,0,-6.0358,-6.0297,-6.0243,-6.0152,-6.0102,-6.0045,-5.9966,-5.9928,-5.9871,-5.9794,-5.9733,-5.965,-5.9577,-5.9478,-5.9395,-5.9367,-5.9334,-5.9349,-5.9348,-5.9334,-5.9278,-5.9287,-5.9377,-5.9377,-5.9377,-5.9377,-5.9377,-5.9377,-6.0398,-6.0356,-6.0301,-6.0225,-6.0162,-6.0098,-6.0057,-5.9997,-5.9935,-5.9848,-5.9787,-5.9723,-5.9634,-5.9544,-5.9471,-5.9443,-5.9415,-5.9439,-5.9401,-5.935,-5.9339,-5.9329,-5.9336,-5.9434,-5.9434,-5.9461,-5.9461,-5.9461]}]]